HP11 MTCH-MDAB

Flight info

Callsign HP11
Flight time 1h 13m
Altitude 3500
Route 194551N0721009W 191416N0694412W
Aircraft DA40/L-SG/C

Departure

Time 2026-05-05 03:40
Airport Cap Haitien International Airport (MTCH)

Arrival

Time 2026-05-05 04:54
Airport Arroyo Barril Airport (MDAB)
Time Latitude Longitude Altitude Speed Heading
2026-05-05 03:24 19.73604 -72.19438 7 ft 0 kts 129°
2026-05-05 03:32 19.73594 -72.19426 7 ft 0 kts 134°
2026-05-05 03:32 19.73560 -72.19388 7 ft 13 kts 130°
2026-05-05 03:33 19.73493 -72.19309 8 ft 9 kts 157°
2026-05-05 03:33 19.73441 -72.19333 6 ft 11 kts 219°
2026-05-05 03:33 19.73337 -72.19424 5 ft 27 kts 218°
2026-05-05 03:33 19.73185 -72.19556 4 ft 27 kts 219°
2026-05-05 03:34 19.73046 -72.19672 6 ft 24 kts 213°
2026-05-05 03:34 19.72930 -72.19776 7 ft 21 kts 219°
2026-05-05 03:34 19.72822 -72.19871 8 ft 19 kts 219°
2026-05-05 03:34 19.72718 -72.19961 10 ft 20 kts 219°
2026-05-05 03:35 19.72611 -72.20053 6 ft 20 kts 219°
2026-05-05 03:35 19.72509 -72.20142 7 ft 18 kts 217°
2026-05-05 03:35 19.72410 -72.20225 4 ft 18 kts 221°
2026-05-05 03:35 19.72314 -72.20311 4 ft 18 kts 218°
2026-05-05 03:36 19.72222 -72.20387 4 ft 15 kts 218°
2026-05-05 03:36 19.72148 -72.20455 4 ft 13 kts 222°
2026-05-05 03:36 19.72083 -72.20512 5 ft 11 kts 218°
2026-05-05 03:36 19.72032 -72.20555 5 ft 8 kts 220°
2026-05-05 03:37 19.71974 -72.20606 6 ft 15 kts 218°
2026-05-05 03:37 19.71876 -72.20691 6 ft 19 kts 220°
2026-05-05 03:37 19.71806 -72.20731 7 ft 2 kts 250°
2026-05-05 03:37 19.71814 -72.20747 6 ft 0 kts 38°
2026-05-05 03:38 19.71832 -72.20729 7 ft 0 kts 39°
2026-05-05 03:39 19.71899 -72.20671 7 ft 38 kts 37°
2026-05-05 03:40 19.72230 -72.20389 32 ft 77 kts 38°
2026-05-05 03:40 19.72654 -72.20036 251 ft 76 kts 37°
2026-05-05 03:40 19.73076 -72.19679 455 ft 78 kts 36°
2026-05-05 03:40 19.73504 -72.19313 618 ft 87 kts 37°
2026-05-05 03:41 19.74483 -72.18509 1116 ft 82 kts 38°
2026-05-05 03:41 19.74836 -72.18205 1256 ft 83 kts 36°
2026-05-05 03:42 19.75306 -72.17836 1439 ft 85 kts 33°
2026-05-05 03:42 19.75795 -72.17430 1600 ft 91 kts 38°
2026-05-05 03:42 19.76300 -72.17010 1817 ft 90 kts 37°
2026-05-05 03:42 19.76765 -72.16543 1970 ft 98 kts 53°
2026-05-05 03:43 19.76911 -72.15874 2181 ft 96 kts 98°
2026-05-05 03:43 19.76721 -72.15173 2360 ft 99 kts 104°
2026-05-05 03:43 19.76532 -72.14436 2479 ft 104 kts 102°
2026-05-05 03:43 19.76425 -72.13727 2781 ft 92 kts 93°
2026-05-05 03:44 19.76337 -72.13016 2894 ft 103 kts 108°
2026-05-05 03:44 19.76120 -72.12350 3164 ft 94 kts 99°
2026-05-05 03:44 19.75956 -72.11629 3313 ft 99 kts 102°
2026-05-05 03:44 19.75806 -72.10919 3481 ft 103 kts 100°
2026-05-05 03:45 19.75653 -72.10110 3492 ft 116 kts 101°
2026-05-05 03:45 19.75448 -72.09272 3547 ft 123 kts 108°
2026-05-05 03:45 19.75200 -72.08378 3523 ft 131 kts 105°
2026-05-05 03:45 19.74983 -72.07427 3550 ft 132 kts 103°
2026-05-05 03:46 19.74718 -72.06489 3567 ft 134 kts 109°
2026-05-05 03:46 19.74465 -72.05529 3557 ft 136 kts 103°
2026-05-05 03:46 19.74245 -72.04541 3533 ft 138 kts 103°
2026-05-05 03:46 19.74022 -72.03542 3511 ft 140 kts 103°
2026-05-05 03:47 19.73798 -72.02537 3495 ft 139 kts 103°
2026-05-05 03:47 19.73577 -72.01538 3499 ft 139 kts 102°
2026-05-05 03:47 19.73355 -72.00543 3498 ft 138 kts 103°
2026-05-05 03:47 19.73133 -71.99551 3494 ft 138 kts 102°
2026-05-05 03:48 19.72912 -71.98560 3500 ft 138 kts 103°
2026-05-05 03:48 19.72691 -71.97568 3492 ft 138 kts 103°
2026-05-05 03:48 19.72474 -71.96591 3495 ft 138 kts 103°
2026-05-05 03:48 19.72253 -71.95604 3497 ft 137 kts 103°
2026-05-05 03:49 19.72033 -71.94616 3496 ft 137 kts 102°
2026-05-05 03:49 19.71811 -71.93629 3494 ft 137 kts 103°
2026-05-05 03:49 19.71592 -71.92643 3492 ft 137 kts 103°
2026-05-05 03:49 19.71372 -71.91654 3508 ft 139 kts 102°
2026-05-05 03:50 19.71143 -71.90639 3492 ft 142 kts 103°
2026-05-05 03:50 19.70920 -71.89629 3482 ft 139 kts 102°
2026-05-05 03:50 19.70698 -71.88635 3496 ft 138 kts 103°
2026-05-05 03:50 19.70478 -71.87650 3492 ft 137 kts 102°
2026-05-05 03:51 19.70256 -71.86653 3498 ft 141 kts 103°
2026-05-05 03:51 19.70032 -71.85639 3499 ft 140 kts 102°
2026-05-05 03:51 19.69804 -71.84621 3489 ft 142 kts 103°
2026-05-05 03:51 19.69580 -71.83608 3491 ft 140 kts 102°
2026-05-05 03:52 19.69357 -71.82602 3498 ft 140 kts 102°
2026-05-05 03:52 19.69130 -71.81579 3500 ft 143 kts 102°
2026-05-05 03:52 19.68904 -71.80562 3496 ft 143 kts 102°
2026-05-05 03:52 19.68675 -71.79535 3483 ft 143 kts 103°
2026-05-05 03:53 19.68446 -71.78511 3497 ft 142 kts 103°
2026-05-05 03:53 19.68221 -71.77499 3491 ft 140 kts 102°
2026-05-05 03:53 19.67998 -71.76492 3494 ft 141 kts 102°
2026-05-05 03:53 19.67772 -71.75472 3495 ft 143 kts 102°
2026-05-05 03:54 19.67539 -71.74435 3500 ft 146 kts 102°
2026-05-05 03:54 19.67297 -71.73379 3499 ft 148 kts 103°
2026-05-05 03:54 19.67061 -71.72327 3482 ft 144 kts 102°
2026-05-05 03:54 19.66834 -71.71309 3486 ft 140 kts 102°
2026-05-05 03:55 19.66610 -71.70311 3487 ft 138 kts 102°
2026-05-05 03:55 19.66388 -71.69328 3488 ft 137 kts 103°
2026-05-05 03:55 19.66171 -71.68359 3492 ft 137 kts 102°
2026-05-05 03:55 19.65949 -71.67372 3506 ft 139 kts 103°
2026-05-05 03:56 19.65723 -71.66372 3487 ft 138 kts 102°
2026-05-05 03:56 19.65501 -71.65380 3486 ft 138 kts 103°
2026-05-05 03:56 19.65280 -71.64391 3491 ft 139 kts 102°
2026-05-05 03:56 19.65057 -71.63399 3487 ft 138 kts 102°
2026-05-05 03:57 19.64836 -71.62412 3487 ft 137 kts 103°
2026-05-05 03:57 19.64610 -71.61428 3496 ft 138 kts 105°
2026-05-05 03:57 19.64383 -71.60417 3489 ft 141 kts 102°
2026-05-05 03:57 19.64164 -71.59410 3494 ft 142 kts 102°
2026-05-05 03:58 19.63927 -71.58378 3503 ft 147 kts 104°
2026-05-05 03:58 19.63692 -71.57342 3484 ft 142 kts 102°
2026-05-05 03:58 19.63465 -71.56330 3489 ft 140 kts 102°
2026-05-05 03:58 19.63239 -71.55321 3474 ft 144 kts 102°
2026-05-05 03:59 19.63009 -71.54302 3489 ft 141 kts 102°
2026-05-05 03:59 19.62777 -71.53265 3503 ft 148 kts 102°
2026-05-05 03:59 19.62539 -71.52198 3501 ft 148 kts 104°
2026-05-05 03:59 19.62296 -71.51136 3492 ft 148 kts 103°
2026-05-05 04:00 19.62056 -71.50084 3497 ft 146 kts 103°
2026-05-05 04:00 19.61829 -71.49055 3499 ft 145 kts 102°
2026-05-05 04:00 19.61599 -71.48021 3492 ft 142 kts 102°
2026-05-05 04:00 19.61377 -71.47001 3484 ft 143 kts 103°
2026-05-05 04:01 19.61149 -71.45981 3499 ft 143 kts 102°
2026-05-05 04:01 19.60923 -71.44953 3494 ft 143 kts 103°
2026-05-05 04:01 19.60698 -71.43922 3494 ft 143 kts 102°
2026-05-05 04:01 19.60471 -71.42903 3503 ft 141 kts 103°
2026-05-05 04:02 19.60249 -71.41893 3495 ft 139 kts 102°
2026-05-05 04:02 19.60031 -71.40888 3497 ft 141 kts 102°
2026-05-05 04:02 19.59809 -71.39873 3498 ft 141 kts 103°
2026-05-05 04:02 19.59586 -71.38858 3495 ft 142 kts 102°
2026-05-05 04:03 19.59371 -71.37848 3497 ft 141 kts 102°
2026-05-05 04:03 19.59156 -71.36844 3499 ft 140 kts 102°
2026-05-05 04:03 19.58943 -71.35842 3493 ft 138 kts 102°
2026-05-05 04:03 19.58732 -71.34850 3500 ft 137 kts 102°
2026-05-05 04:04 19.58522 -71.33864 3493 ft 137 kts 102°
2026-05-05 04:04 19.58312 -71.32878 3511 ft 138 kts 102°
2026-05-05 04:04 19.58102 -71.31880 3502 ft 139 kts 102°
2026-05-05 04:04 19.57892 -71.30883 3498 ft 138 kts 102°
2026-05-05 04:05 19.57683 -71.29892 3502 ft 137 kts 102°
2026-05-05 04:05 19.57479 -71.28915 3504 ft 137 kts 102°
2026-05-05 04:05 19.57271 -71.27915 3495 ft 140 kts 102°
2026-05-05 04:05 19.57063 -71.26911 3500 ft 139 kts 102°
2026-05-05 04:06 19.56858 -71.25909 3506 ft 139 kts 102°
2026-05-05 04:06 19.56657 -71.24911 3506 ft 139 kts 102°
2026-05-05 04:06 19.56454 -71.23903 3505 ft 141 kts 102°
2026-05-05 04:06 19.56249 -71.22895 3499 ft 139 kts 102°
2026-05-05 04:07 19.56047 -71.21892 3498 ft 138 kts 102°
2026-05-05 04:07 19.55848 -71.20899 3511 ft 138 kts 102°
2026-05-05 04:07 19.55647 -71.19893 3510 ft 140 kts 102°
2026-05-05 04:07 19.55445 -71.18883 3510 ft 140 kts 103°
2026-05-05 04:08 19.55245 -71.17883 3508 ft 140 kts 102°
2026-05-05 04:08 19.55045 -71.16877 3509 ft 139 kts 102°
2026-05-05 04:08 19.54845 -71.15870 3507 ft 139 kts 102°
2026-05-05 04:08 19.54647 -71.14874 3501 ft 137 kts 102°
2026-05-05 04:09 19.54450 -71.13876 3511 ft 139 kts 102°
2026-05-05 04:09 19.54252 -71.12869 3507 ft 139 kts 102°
2026-05-05 04:09 19.54055 -71.11872 3510 ft 137 kts 102°
2026-05-05 04:09 19.53860 -71.10880 3503 ft 137 kts 102°
2026-05-05 04:10 19.53668 -71.09893 3508 ft 137 kts 102°
2026-05-05 04:10 19.53477 -71.08903 3516 ft 138 kts 102°
2026-05-05 04:10 19.53276 -71.07894 3520 ft 141 kts 103°
2026-05-05 04:10 19.53075 -71.06867 3523 ft 142 kts 102°
2026-05-05 04:11 19.52881 -71.05854 3500 ft 143 kts 102°
2026-05-05 04:11 19.52680 -71.04816 3511 ft 145 kts 103°
2026-05-05 04:11 19.52480 -71.03772 3506 ft 144 kts 102°
2026-05-05 04:11 19.52281 -71.02735 3515 ft 144 kts 103°
2026-05-05 04:12 19.52081 -71.01697 3510 ft 143 kts 103°
2026-05-05 04:12 19.51952 -71.01013 3510 ft 142 kts 102°
2026-05-05 04:12 19.51691 -70.99635 3506 ft 143 kts 103°
2026-05-05 04:12 19.51563 -70.98956 3514 ft 141 kts 102°
2026-05-05 04:13 19.51365 -70.97935 3512 ft 142 kts 102°
2026-05-05 04:13 19.51167 -70.96907 3513 ft 143 kts 102°
2026-05-05 04:13 19.50975 -70.95865 3514 ft 145 kts 101°
2026-05-05 04:13 19.50774 -70.94810 3520 ft 147 kts 103°
2026-05-05 04:14 19.50571 -70.93754 3519 ft 146 kts 102°
2026-05-05 04:14 19.50375 -70.92699 3513 ft 146 kts 102°
2026-05-05 04:14 19.50183 -70.91632 3518 ft 148 kts 103°
2026-05-05 04:14 19.49996 -70.90561 3522 ft 147 kts 102°
2026-05-05 04:15 19.49798 -70.89495 3521 ft 148 kts 102°
2026-05-05 04:15 19.49608 -70.88422 3518 ft 147 kts 103°
2026-05-05 04:15 19.49413 -70.87352 3519 ft 147 kts 102°
2026-05-05 04:15 19.49228 -70.86292 3523 ft 149 kts 103°
2026-05-05 04:16 19.49045 -70.85234 3524 ft 144 kts 102°
2026-05-05 04:16 19.48855 -70.84177 3504 ft 144 kts 102°
2026-05-05 04:16 19.48727 -70.83468 3517 ft 146 kts 102°
2026-05-05 04:16 19.48583 -70.82669 3497 ft 136 kts 103°
2026-05-05 04:17 19.48416 -70.81707 3509 ft 134 kts 102°
2026-05-05 04:17 19.48238 -70.80723 3521 ft 141 kts 102°
2026-05-05 04:17 19.48056 -70.79703 3507 ft 138 kts 102°
2026-05-05 04:17 19.47878 -70.78679 3524 ft 144 kts 102°
2026-05-05 04:18 19.47693 -70.77635 3514 ft 147 kts 103°
2026-05-05 04:18 19.47511 -70.76579 3509 ft 146 kts 102°
2026-05-05 04:18 19.47335 -70.75532 3518 ft 145 kts 101°
2026-05-05 04:18 19.47160 -70.74481 3503 ft 146 kts 103°
2026-05-05 04:19 19.46978 -70.73436 3497 ft 145 kts 103°
2026-05-05 04:19 19.46811 -70.72396 3514 ft 143 kts 102°
2026-05-05 04:19 19.46639 -70.71365 3489 ft 140 kts 102°
2026-05-05 04:19 19.46465 -70.70337 3491 ft 141 kts 102°
2026-05-05 04:20 19.46291 -70.69298 3504 ft 145 kts 101°
2026-05-05 04:20 19.46107 -70.68238 3510 ft 147 kts 102°
2026-05-05 04:20 19.45933 -70.67164 3508 ft 148 kts 101°
2026-05-05 04:20 19.45757 -70.66099 3504 ft 147 kts 103°
2026-05-05 04:21 19.45578 -70.65040 3508 ft 147 kts 101°
2026-05-05 04:21 19.45389 -70.63955 3501 ft 151 kts 101°
2026-05-05 04:21 19.45197 -70.62854 3506 ft 150 kts 101°
2026-05-05 04:21 19.45013 -70.61751 3491 ft 151 kts 102°
2026-05-05 04:22 19.44833 -70.60662 3504 ft 151 kts 102°
2026-05-05 04:22 19.44643 -70.59558 3507 ft 153 kts 103°
2026-05-05 04:22 19.44455 -70.58442 3492 ft 154 kts 102°
2026-05-05 04:22 19.44273 -70.57333 3476 ft 152 kts 102°
2026-05-05 04:23 19.44102 -70.56261 3505 ft 148 kts 103°
2026-05-05 04:23 19.43923 -70.55191 3501 ft 147 kts 102°
2026-05-05 04:23 19.43733 -70.54125 3487 ft 145 kts 103°
2026-05-05 04:23 19.43568 -70.53105 3521 ft 141 kts 101°
2026-05-05 04:24 19.43407 -70.52067 3488 ft 145 kts 101°
2026-05-05 04:24 19.43243 -70.51029 3498 ft 138 kts 101°
2026-05-05 04:24 19.43080 -70.50009 3520 ft 140 kts 101°
2026-05-05 04:25 19.42744 -70.47875 3493 ft 144 kts 102°
2026-05-05 04:25 19.42569 -70.46815 3477 ft 149 kts 102°
2026-05-05 04:25 19.42392 -70.45722 3500 ft 154 kts 102°
2026-05-05 04:25 19.42226 -70.44619 3519 ft 147 kts 102°
2026-05-05 04:26 19.42056 -70.43570 3488 ft 144 kts 102°
2026-05-05 04:26 19.41892 -70.42545 3498 ft 139 kts 102°
2026-05-05 04:26 19.41735 -70.41536 3531 ft 140 kts 100°
2026-05-05 04:26 19.41586 -70.40493 3505 ft 142 kts 102°
2026-05-05 04:27 19.41435 -70.39484 3496 ft 136 kts 102°
2026-05-05 04:27 19.41280 -70.38501 3508 ft 135 kts 103°
2026-05-05 04:27 19.41126 -70.37512 3500 ft 136 kts 102°
2026-05-05 04:27 19.40973 -70.36535 3491 ft 131 kts 102°
2026-05-05 04:28 19.40819 -70.35593 3500 ft 130 kts 102°
2026-05-05 04:28 19.40676 -70.34650 3496 ft 131 kts 102°
2026-05-05 04:28 19.40528 -70.33697 3498 ft 131 kts 102°
2026-05-05 04:28 19.40382 -70.32746 3492 ft 130 kts 102°
2026-05-05 04:29 19.40241 -70.31798 3494 ft 132 kts 102°
2026-05-05 04:29 19.40105 -70.30834 3494 ft 133 kts 102°
2026-05-05 04:29 19.39968 -70.29866 3497 ft 134 kts 101°
2026-05-05 04:29 19.39821 -70.28891 3494 ft 134 kts 102°
2026-05-05 04:30 19.39673 -70.27914 3497 ft 135 kts 102°
2026-05-05 04:30 19.39538 -70.26935 3496 ft 134 kts 101°
2026-05-05 04:30 19.39399 -70.25957 3495 ft 134 kts 102°
2026-05-05 04:30 19.39246 -70.24974 3499 ft 137 kts 104°
2026-05-05 04:31 19.39098 -70.23983 3489 ft 135 kts 102°
2026-05-05 04:31 19.38949 -70.23001 3559 ft 136 kts 102°
2026-05-05 04:31 19.38776 -70.21966 3474 ft 143 kts 103°
2026-05-05 04:31 19.38626 -70.20944 3528 ft 140 kts 99°
2026-05-05 04:32 19.38475 -70.19913 3481 ft 140 kts 102°
2026-05-05 04:32 19.38338 -70.18899 3488 ft 146 kts 98°
2026-05-05 04:32 19.38188 -70.17827 3472 ft 145 kts 102°
2026-05-05 04:32 19.38045 -70.16766 3430 ft 148 kts 103°
2026-05-05 04:33 19.37892 -70.15719 3473 ft 143 kts 102°
2026-05-05 04:33 19.37765 -70.14708 3478 ft 136 kts 101°
2026-05-05 04:33 19.37625 -70.13726 3478 ft 134 kts 102°
2026-05-05 04:33 19.37488 -70.12753 3477 ft 132 kts 102°
2026-05-05 04:34 19.37364 -70.11800 3478 ft 130 kts 102°
2026-05-05 04:34 19.37237 -70.10856 3474 ft 128 kts 102°
2026-05-05 04:34 19.37109 -70.09925 3482 ft 131 kts 102°
2026-05-05 04:34 19.36973 -70.08970 3473 ft 127 kts 102°
2026-05-05 04:35 19.36857 -70.08058 3483 ft 124 kts 102°
2026-05-05 04:35 19.36740 -70.07142 3560 ft 131 kts 98°
2026-05-05 04:35 19.36607 -70.06147 3554 ft 139 kts 103°
2026-05-05 04:35 19.36460 -70.05072 3464 ft 145 kts 102°
2026-05-05 04:36 19.36322 -70.04046 3476 ft 137 kts 102°
2026-05-05 04:36 19.36180 -70.03059 3475 ft 135 kts 102°
2026-05-05 04:36 19.36044 -70.02083 3498 ft 134 kts 102°
2026-05-05 04:36 19.35910 -70.01103 3489 ft 133 kts 102°
2026-05-05 04:37 19.35778 -70.00143 3489 ft 131 kts 102°
2026-05-05 04:37 19.35660 -69.99192 3484 ft 130 kts 102°
2026-05-05 04:37 19.35536 -69.98251 3484 ft 130 kts 102°
2026-05-05 04:37 19.35399 -69.97294 3480 ft 129 kts 102°
2026-05-05 04:38 19.35266 -69.96370 3486 ft 129 kts 102°
2026-05-05 04:38 19.35140 -69.95435 3481 ft 128 kts 102°
2026-05-05 04:38 19.35015 -69.94502 3482 ft 128 kts 102°
2026-05-05 04:38 19.34889 -69.93565 3488 ft 129 kts 102°
2026-05-05 04:39 19.34747 -69.92592 3484 ft 139 kts 102°
2026-05-05 04:39 19.34600 -69.91576 3472 ft 138 kts 102°
2026-05-05 04:39 19.34459 -69.90585 3473 ft 135 kts 102°
2026-05-05 04:39 19.34325 -69.89611 3473 ft 133 kts 102°
2026-05-05 04:40 19.34193 -69.88645 3472 ft 132 kts 102°
2026-05-05 04:40 19.34062 -69.87686 3480 ft 132 kts 102°
2026-05-05 04:40 19.33932 -69.86679 3456 ft 143 kts 102°
2026-05-05 04:40 19.33778 -69.85631 3479 ft 146 kts 100°
2026-05-05 04:41 19.33624 -69.84580 3461 ft 145 kts 102°
2026-05-05 04:41 19.33475 -69.83546 3485 ft 144 kts 102°
2026-05-05 04:41 19.33310 -69.82511 3501 ft 141 kts 102°
2026-05-05 04:41 19.33166 -69.81491 3473 ft 136 kts 101°
2026-05-05 04:42 19.33029 -69.80516 3497 ft 133 kts 99°
2026-05-05 04:42 19.32884 -69.79553 3483 ft 130 kts 107°
2026-05-05 04:42 19.32636 -69.78652 3475 ft 128 kts 110°
2026-05-05 04:42 19.32348 -69.77766 3479 ft 126 kts 116°
2026-05-05 04:43 19.31989 -69.76922 3486 ft 126 kts 117°
2026-05-05 04:43 19.31628 -69.76079 3485 ft 126 kts 117°
2026-05-05 04:43 19.31265 -69.75230 3481 ft 127 kts 117°
2026-05-05 04:43 19.30903 -69.74379 3486 ft 127 kts 116°
2026-05-05 04:44 19.30539 -69.73525 3487 ft 127 kts 117°
2026-05-05 04:44 19.30175 -69.72670 3489 ft 127 kts 117°
2026-05-05 04:44 19.29811 -69.71817 3485 ft 127 kts 117°
2026-05-05 04:44 19.29446 -69.70964 3482 ft 127 kts 116°
2026-05-05 04:45 19.29080 -69.70113 3481 ft 127 kts 117°
2026-05-05 04:45 19.28716 -69.69267 3483 ft 126 kts 117°
2026-05-05 04:45 19.28353 -69.68424 3484 ft 125 kts 117°
2026-05-05 04:45 19.27994 -69.67584 3493 ft 126 kts 116°
2026-05-05 04:46 19.27639 -69.66732 3538 ft 125 kts 115°
2026-05-05 04:46 19.27276 -69.65870 3479 ft 127 kts 116°
2026-05-05 04:46 19.26918 -69.65030 3490 ft 125 kts 118°
2026-05-05 04:46 19.26570 -69.64194 3495 ft 124 kts 116°
2026-05-05 04:47 19.26215 -69.63358 3502 ft 125 kts 116°
2026-05-05 04:47 19.25852 -69.62531 3500 ft 123 kts 117°
2026-05-05 04:47 19.25497 -69.61722 3508 ft 124 kts 116°
2026-05-05 04:47 19.25107 -69.60868 3496 ft 130 kts 118°
2026-05-05 04:48 19.24733 -69.60000 3498 ft 128 kts 116°
2026-05-05 04:48 19.24366 -69.59145 3496 ft 127 kts 116°
2026-05-05 04:48 19.23999 -69.58294 3509 ft 127 kts 116°
2026-05-05 04:48 19.23622 -69.57438 3502 ft 129 kts 116°
2026-05-05 04:49 19.23238 -69.56579 3498 ft 129 kts 117°
2026-05-05 04:49 19.22858 -69.55722 3503 ft 129 kts 117°
2026-05-05 04:49 19.22479 -69.54862 3499 ft 128 kts 117°
2026-05-05 04:49 19.22094 -69.53995 3505 ft 130 kts 116°
2026-05-05 04:50 19.21716 -69.53134 3507 ft 128 kts 116°
2026-05-05 04:50 19.21340 -69.52279 3504 ft 128 kts 116°
2026-05-05 04:50 19.20966 -69.51431 3505 ft 127 kts 116°
2026-05-05 04:50 19.20727 -69.50540 3503 ft 127 kts 99°
2026-05-05 04:51 19.20629 -69.49645 3406 ft 112 kts 101°
2026-05-05 04:51 19.20535 -69.48931 3332 ft 81 kts 102°
2026-05-05 04:51 19.20591 -69.48348 2832 ft 89 kts 89°
2026-05-05 04:51 19.20784 -69.47747 2396 ft 83 kts 91°
2026-05-05 04:52 19.20625 -69.47169 1831 ft 87 kts 110°
2026-05-05 04:52 19.20408 -69.46579 1348 ft 85 kts 105°
2026-05-05 04:52 19.20322 -69.45956 922 ft 81 kts 100°
2026-05-05 04:52 19.20244 -69.45387 650 ft 78 kts 102°
2026-05-05 04:53 19.20159 -69.44840 409 ft 74 kts 103°
2026-05-05 04:53 19.20064 -69.44321 305 ft 71 kts 103°
2026-05-05 04:53 19.19991 -69.43819 186 ft 69 kts 104°
2026-05-05 04:53 19.19911 -69.43339 69 ft 55 kts 105°
2026-05-05 04:54 19.19859 -69.43021 60 ft 37 kts 102°
2026-05-05 04:54 19.19832 -69.42845 55 ft 5 kts 16°
2026-05-05 04:54 19.19838 -69.42880 56 ft 14 kts 275°
2026-05-05 04:54 19.19866 -69.43064 58 ft 35 kts 280°
2026-05-05 04:55 19.19917 -69.43291 65 ft 26 kts 339°
2026-05-05 04:55 19.19949 -69.43284 71 ft 7 kts
2026-05-05 04:55 19.20045 -69.43296 73 ft 15 kts 298°
2026-05-05 04:55 19.20090 -69.43308 80 ft 3 kts 356°
2026-05-05 04:56 19.20098 -69.43318 86 ft 1 kts 283°